Find WHDW 14-05

NORAD ID: 66919 Int'l Des: 2025-285 Owner: ZXW Country: CN Constellation: xingwang operational
LEOCIRCULAR

Live Position

Loading 3D Globe...

About WHDW 14-05

Description loading...

Upcoming Passes

Passes for default location (London). Set your location on the main map for personalized predictions.

Altitude History

Loading altitude history...

Two-Line Element Set

1 66919U 25285E 26111.38204766 -.00000076 00000-0 10286-3 0 9994
2 66919 50.0096 349.6817 0000764 93.3121 266.7839 13.29335030 18512
Epoch: Apr 21, 2026 • Age: 17 hours

Current Status

Altitude 1150.3 km
Velocity 7.28 km/s
Sub-Earth Point -3.46°S, 75.13°W
Launch Date Dec 6, 2025
Age 0.3 years
Type other

Technical Details

Classification Payload
Mass 700.00 kg
Dry Mass 700.00 kg
Total Mass 700.00 kg
Length 3.00 m
Diameter 1.00 m
Span 10.00 m
Shape Box + 2 Pan
Manufacturer CAST
Bus Type Xingwang C
Phase Status In Orbit
Owner/State ZXW/CN

Most Searched